METEOR 2-17 DEB, 44697

Orbit data source: Space-Track

METEOR 2-17 DEB, 44697 is space debris in LEO originally from a launch on Sat, 30 Jan 1988 UTC launched from the Plesetsk Missile And Space Complex (PKMTR). Debris objects in space refer to the collection of defunct objects orbiting the Earth. Examples of debris include non-operational satellites, rocket bodies, and fragments generated from explosions, collisions, or faulty payload assembly.

Loading next visibility...
Identifier
44697, 1988-005BA
Orbit
LEO
Country
Flag of CISCIS
Related business
Manufacturer
Unknown
Mission
Spacecraft
Bus & Motor
Unknown
Mass
Unknown
Launch date (UTC)
1988-01-30 (38 years ago)
Launch vehicle
Unknown
Launch site
Plesetsk Missile And Space Complex (PKMTR)
Object type
Payload
Rocket body
Debris
Shape & HBR
Unknown shape, 0.1 m
Radar Cross Section
Small (<0.1 m²)

Expand to show TLE details & history
Last TLE update: 2 months ago

TLE from 2 months ago
0 METEOR 2-17 DEB
1 44697U 88005BA  25258.72892091  .00003373  00000-0  19458-2 0  9996
2 44697  82.5155  70.7504 0012933 239.2533 120.7367 14.08791693548906
Epoch: 2025-09-15T17:29Z
TLE epoch observation values (Epoch: 2025-09-15T17:29:38.766Z)
Latitude
-0.00011°
Longitude
173.40946°
Altitude
871.242 km
Speed
7.414 km/s
True Right ascension
04h 43m 00s
True Declination
0° 00' 00"
Sunlit
Object was in daylight at epoch
Visualization orbit readout
Latitude
Unknown
Longitude
Unknown
Altitude
Unknown
Speed
Unknown
Apparent Right ascension
Unknown
Apparent Declination
Unknown
Sunlit
N/A
Visualization observer readout
Local Sidereal Time
01:07:07
Azimuth
Unknown
Elevation
Unknown
Doppler factor
Unknown
Orbital elements
Apogee altitude
869.991 km
Perigee altitude
851.267 km
Semi-major axis
7,238.766 km
Eccentricity
0.00129
Inclination
82.5155°
RAAN
70.7504°
Arg. of periapsis
239.2533°
True anomaly
120.86398°
Mean anomaly
120.7367°
Eccentric anomaly
120.80035°
Mean motion
3.52409 °/min
Orbital period
102.15 mins
BSTAR
0.0019458
Loading maneuver chart data...
Computing Atmospheric mass density...
Loading historical data...
Loading historical data...
Loading historical data...
Loading historical data...
Loading historical data...
Loading historical data...
Loading historical data...

Documentation

Showing up to 5 results
|